Location: Unspecified
(52.4361°N, 0.0000°E)
Time: 04:46:14
(UTC+00:00)

nSIGHT-1 - Visible Passes

Search period start: 18 August 2019 00:00
Search period end: 28 August 2019 00:00
Orbit: 346 x 352 km, 51.6° (Epoch: 16 August)

Date Brightness Start Highest point End Pass type
(mag) Time Alt. Az. Time Alt. Az. Time Alt. Az.
21 Aug ? 03:36:59 10° SSE 03:37:51 11° SE 03:38:43 10° ESE visible
22 Aug ? 04:00:23 10° SSW 04:02:46 23° SSE 04:05:09 10° E visible
23 Aug ? 02:52:55 12° SE 02:53:07 12° SE 02:54:14 10° ESE visible
24 Aug ? 03:17:09 21° S 03:18:00 24° SSE 03:20:26 10° E visible
25 Aug ? 03:41:20 20° SW 03:43:00 44° SSE 03:45:48 10° E visible
26 Aug ? 02:33:57 21° ESE 02:33:57 21° ESE 02:35:35 10° E visible
26 Aug ? 04:05:27 12° WSW 04:08:05 68° S 04:10:59 10° E visible
27 Aug ? 02:58:03 45° SSE 02:58:03 45° SSE 03:00:52 10° E visible
